This demonstration page uses our WeatherBlox Daily Observations layout. Learn more.

Left ArrowRight Arrow

38.20091, -84.87328

Hourly Observations for March 28, 2022

Temp ( °F °C ) Dew Point ( °F °C ) Humidity (%) Winds ( mph kmh ) Pressure ( in mb ) Visibility ( mi km ) Precip ( " mm )
12:53 am 00:53 Clear 31 -0.6 18 -7.8 59 59 NNW 3 6 30.17 1022 10 16 0.00 0.00
1:53 am 01:53 Clear 30 -1.1 18 -7.8 61 61 NNW 3 6 30.17 1022 10 16 0.00 0.00
2:53 am 02:53 Clear 26 -3.3 19 -7.2 75 75 Calm 30.19 1022 10 16 0.00 0.00
3:53 am 03:53 Clear 25 -3.9 18 -7.8 75 75 Calm 30.19 1022 10 16 0.00 0.00
4:53 am 04:53 Clear 23 -5 18 -7.8 81 81 Calm 30.19 1022 10 16 0.00 0.00
5:53 am 05:53 Clear 22 -5.6 18 -7.8 85 85 Calm 30.20 1023 10 16 0.00 0.00
6:53 am 06:53 Clear 21 -6.1 17 -8.3 85 85 N 3 6 30.22 1023 10 16 0.00 0.00
7:53 am 07:53 Sunny 21 -6.1 17 -8.3 85 85 Calm 30.23 1024 10 16 0.00 0.00
8:53 am 08:53 Sunny 29 -1.7 18 -7.8 63 63 NE 5 7 30.24 1024 10 16 0.00 0.00
9:53 am 09:53 Sunny 33 0.6 17 -8.3 52 52 NE 5 7 30.26 1025 10 16 0.00 0.00
10:53 am 10:53 Sunny 35 1.7 15 -9.4 44 44 undefined N/A 30.27 1025 10 16 0.00 0.00
11:53 am 11:53 Sunny 37 2.8 15 -9.4 41 41 undefined N/A 30.27 1025 10 16 0.00 0.00
12:53 pm 12:53 Sunny 41 5 15 -9.4 35 35 VRB 6 9 30.27 1025 10 16 0.00 0.00
1:53 pm 13:53 Sunny 43 6.1 15 -9.4 32 32 undefined N/A 30.27 1025 10 16 0.00 0.00
2:53 pm 14:53 Sunny 45 7.2 13 -10.6 27 27 NW 10 17 30.25 1024 10 16 0.00 0.00
3:53 pm 15:53 Sunny 45 7.2 14 -10 29 29 NW 6 9 30.23 1024 10 16 0.00 0.00
4:53 pm 16:53 Sunny 46 7.8 13 -10.6 26 26 WNW 10 17 30.22 1023 10 16 0.00 0.00
5:53 pm 17:53 Sunny 46 7.8 11 -11.7 24 24 WNW 6 9 30.21 1023 10 16 0.00 0.00
6:53 pm 18:53 Sunny 46 7.8 13 -10.6 26 26 NNW 6 9 30.22 1024 10 16 0.00 0.00
7:53 pm 19:53 Sunny 43 6.1 14 -10 31 31 NW 3 6 30.22 1024 10 16 0.00 0.00
8:53 pm 20:53 Clear 41 5 17 -8.3 38 38 NNW 3 6 30.22 1024 10 16 0.00 0.00
9:53 pm 21:53 Clear 39 3.9 18 -7.8 43 43 N 3 6 30.25 1024 10 16 0.00 0.00
10:53 pm 22:53 Clear 38 3.3 17 -8.3 43 43 Calm 30.25 1025 10 16 0.00 0.00
11:53 pm 23:53 Clear 40 4.4 15 -9.4 36 36 NNE 3 6 30.25 1024 10 16 0.00 0.00

Powered by AerisWeather